Temperature
6 6 5 5 5 5 5 4 4 3 3 4 4 4 4 4 4 4 4 4 4 4 4 4 4 4 4 3 3 3 3 3 3 3 3 3 3 3
5 5 5 5 4 4 4 4 4 3 3 3 3 4 4 3 3 3 3 4 4 4 4 4 3 3 3 3 3 3 3 3 3 3 3 2 2 3
4 4 4 4 4 4 4 3 3 3 3 3 3 3 3 3 3 3 3 3 3 3 3 3 3 3 3 3 2 2 2 2 2 2 2 2 2 2
4 4 4 4 3 3 3 3 3 3 2 2 2 3 3 3 3 3 3 3 3 3 3 3 2 2 2 2 2 2 2 2 2 2 2 2 2 2
3 3 3 3 3 3 3 3 3 3 2 2 2 2 2 2 2 3 2 3 3 3 2 2 2 2 2 2 2 2 2 1 1 1 1 1 1 1
3 3 3 3 3 2 2 2 2 2 2 2 2 2 2 2 2 2 2 2 2 2 2 2 2 2 2 2 1 1 1 1 1 1 1 1 1 1
2 2 2 2 2 2 2 2 2 2 2 1 1 1 1 1 1 2 2 2 2 2 2 2 1 1 1 1 1 1 1 1 1 1 0 0 0 0
2 2 2 2 1 1 1 1 1 1 1 1 1 1 1 1 1 1 1 1 1 1 1 1 1 1 1 1 1 0 0 0 0 0 0 0 0 0
1 1 1 1 1 1 1 1 1 1 0 0 0 0 0 0 0 0 0 0 0 1 0 0 1 0 0 0 0 0 0 0 -0 -0 -0 -0 -0 -0
1 1 1 1 1 0 0 1 1 0 0 0 0 0 -0 0 0 -0 -0 -0 0 0 0 -0 -0 -0 0 0 0 -0 -0 -0 -0 -0 -1 -1 -1 -1
0 0 0 0 -0 -0 0 0 0 0 0 -0 -0 -0 -0 -0 -0 -0 -0 -0 -0 -0 -0 -1 -1 -1 -0 -0 -0 -1 -1 -1 -1 -1 -1 -1 -1 -1
-0 -0 -0 -1 -1 -1 -0 -0 -0 -0 -0 -0 -0 -0 -0 -0 -0 -0 -1 -1 -1 -1 -1 -1 -1 -1 -1 -1 -1 -1 -1 -1 -1 -1 -1 -1 -1 -1
-1 -1 -1 -1 -1 -1 -1 -1 -1 -1 -1 -1 -1 -1 -1 -1 -1 -1 -1 -1 -1 -1 -1 -2 -2 -2 -2 -2 -1 -1 -1 -1 -1 -1 -1 -1 -2 -2
-1 -1 -1 -1 -1 -1 -1 -1 -1 -1 -1 -1 -1 -1 -1 -1 -1 -1 -1 -1 -1 -1 -1 -2 -2 -2 -2 -2 -2 -1 -1 -1 -1 -1 -2 -2 -2 -2
-1 -2 -2 -2 -1 -1 -2 -2 -2 -2 -2 -2 -2 -2 -2 -1 -1 -1 -1 -1 -1 -1 -1 -2 -2 -2 -2 -2 -2 -2 -2 -2 -2 -2 -2 -2 -2 -2
-2 -2 -2 -2 -2 -2 -2 -2 -2 -2 -2 -2 -2 -2 -2 -2 -2 -2 -1 -1 -1 -1 -1 -2 -2 -2 -2 -2 -2 -2 -2 -2 -2 -2 -2 -3 -3 -3
-3 -2 -2 -2 -2 -2 -3 -2 -3 -3 -3 -3 -3 -3 -2 -2 -2 -2 -2 -2 -2 -2 -2 -2 -2 -2 -2 -2 -2 -2 -2 -2 -3 -3 -3 -3 -3 -3
-3 -3 -3 -3 -3 -3 -3 -3 -3 -3 -3 -3 -3 -3 -3 -3 -3 -2 -2 -2 -2 -2 -2 -2 -2 -2 -2 -2 -2 -2 -3 -3 -3 -3 -3 -3 -3 -3
-3 -3 -3 -3 -4 -4 -4 -4 -4 -4 -4 -3 -3 -3 -3 -3 -3 -3 -3 -3 -3 -3 -3 -3 -3 -3 -3 -3 -3 -3 -3 -3 -3 -3 -3 -3 -3 -3
-4 -4 -4 -4 -4 -4 -4 -4 -4 -4 -4 -3 -3 -4 -4 -3 -3 -3 -3 -3 -3 -3 -3 -3 -3 -3 -3 -3 -3 -3 -3 -3 -3 -3 -3 -3 -3 -3
-4 -4 -4 -4 -4 -4 -4 -4 -4 -4 -4 -4 -4 -4 -4 -4 -4 -4 -4 -3 -3 -3 -3 -3 -3 -3 -3 -3 -3 -3 -3 -3 -3 -4 -4 -4 -4 -4
-5 -5 -5 -5 -5 -4 -4 -4 -4 -4 -4 -4 -4 -4 -4 -4 -4 -4 -4 -4 -3 -3 -3 -3 -3 -3 -3 -3 -3 -3 -3 -3 -3 -3 -3 -4 -4 -4
-5 -5 -5 -5 -5 -5 -5 -5 -5 -5 -5 -4 -4 -4 -4 -4 -4 -4 -4 -4 -3 -3 -3 -3 -3 -3 -3 -3 -4 -4 -3 -3 -3 -3 -3 -3 -4 -4
Wind_Speed
3 2 2 2 1 1 2 2 2 4 5 4 2 3 4 4 7 7 8 9 9 9 9 9 10 10 10 11 12 12 13 14 15 15 15 15 15 16
2 2 2 2 1 1 2 2 2 3 5 3 3 4 4 5 7 7 8 9 9 9 9 9 9 9 9 10 11 11 12 13 14 15 14 14 15 15
3 3 3 2 1 1 1 2 3 3 5 5 3 4 4 5 6 6 7 7 7 9 10 9 9 9 8 9 10 11 12 12 13 13 14 14 14 14
3 3 2 2 2 2 2 3 3 3 4 6 5 4 4 4 5 5 6 6 7 8 9 9 8 8 8 9 9 10 11 11 12 13 13 13 14 14
3 3 2 2 2 2 3 3 3 3 3 4 5 4 4 4 4 5 5 5 6 7 8 7 7 8 8 8 9 10 10 11 11 12 12 13 13 14
2 2 2 2 3 3 3 3 3 3 3 3 3 4 4 4 3 4 5 5 5 6 6 7 8 8 8 8 9 10 10 11 11 12 12 12 12 13
1 2 2 2 3 3 3 3 3 3 3 3 3 3 4 3 4 3 4 5 5 3 4 5 5 5 5 7 8 9 10 11 11 12 11 11 11 12
2 1 2 2 2 3 4 4 4 3 3 3 3 4 5 4 3 4 4 4 4 3 4 5 4 4 4 4 7 9 10 11 11 12 12 11 12 12
2 1 2 2 3 2 3 4 3 4 3 3 4 4 4 4 3 4 3 4 4 4 4 4 3 4 5 6 9 9 10 10 11 11 12 12 12 13
2 2 2 2 3 2 2 2 2 3 3 2 2 3 3 2 2 3 4 4 3 3 2 2 3 4 5 6 8 9 9 10 11 12 12 12 13 13
1 1 2 2 3 2 1 2 2 3 4 4 5 4 4 4 4 2 2 2 3 3 2 1 2 4 4 3 6 9 10 10 11 11 12 13 13 12
1 1 2 2 3 3 2 2 3 3 3 4 4 5 3 3 4 2 1 2 2 2 2 2 2 3 3 2 4 6 7 9 11 11 12 13 13 8
1 1 1 1 3 4 3 2 2 2 2 2 2 3 3 2 2 3 2 1 2 2 2 2 2 2 1 3 4 5 6 6 7 8 10 12 12 9
0 0 1 2 3 3 2 2 1 2 1 1 1 2 3 3 3 4 4 3 2 3 4 2 1 2 2 3 4 4 5 6 6 5 6 10 10 11
0 0 1 2 2 2 2 1 1 1 1 1 1 2 2 3 3 3 4 4 3 3 2 2 1 2 2 3 3 4 4 4 5 4 5 5 5 6
1 1 1 2 2 2 2 2 1 1 1 1 1 2 2 2 2 2 3 3 3 3 4 3 2 1 2 3 3 4 4 3 5 6 4 4 5 5
1 1 1 1 2 2 2 2 2 2 1 1 1 2 2 3 3 3 2 3 2 3 4 4 4 3 2 3 2 3 3 3 4 5 5 5 4 5
1 1 1 1 1 1 1 2 2 2 1 1 1 2 2 2 3 3 3 2 3 2 3 3 3 4 3 2 1 2 3 3 4 5 4 4 5 5
2 1 1 1 1 1 1 1 1 2 1 1 1 1 2 2 3 3 3 3 3 3 3 2 2 3 3 4 3 2 3 4 4 4 4 4 4 5
1 1 1 1 1 1 1 1 1 2 2 2 2 2 2 2 2 3 3 3 3 3 3 3 3 3 2 2 3 3 5 3 3 4 4 4 3 4
1 1 1 0 1 1 1 1 1 1 2 2 2 2 2 2 2 3 3 4 3 2 3 3 3 5 2 1 2 3 4 6 5 3 4 4 4 4
1 1 1 1 1 1 1 1 1 1 2 2 2 2 2 2 2 3 2 3 2 2 3 3 3 3 2 2 3 4 4 5 7 8 7 5 2 2
0 0 1 1 1 1 1 1 2 2 2 2 2 2 2 2 2 2 3 2 2 2 2 3 3 3 2 2 2 3 4 5 4 5 6 9 8 6
Wind_Direction
199 201 216 243 249 242 233 227 243 275 276 273 284 294 311 308 302 301 297 290 288 290 295 298 304 308 313 319 321 324 325 327 328 324 322 323 323 323
199 202 217 226 227 236 228 248 245 250 268 277 280 303 313 313 306 309 302 298 292 291 295 298 303 306 314 321 323 326 329 331 330 330 329 329 328 330
209 210 221 231 244 251 255 254 256 251 265 286 296 307 305 303 314 312 308 303 300 296 296 299 305 309 318 322 324 326 328 329 330 331 329 329 330 332
212 217 225 229 254 252 262 265 259 254 259 284 301 308 301 300 315 314 319 315 314 309 305 301 306 316 324 327 328 329 331 333 334 333 330 330 331 332
206 216 225 221 249 263 268 272 275 274 267 277 293 305 306 316 320 317 315 322 322 318 314 318 319 322 327 328 333 334 332 334 336 335 333 333 334 333
200 208 221 234 245 259 274 272 282 282 277 280 293 308 312 315 318 320 322 328 324 332 330 327 319 320 322 328 333 337 337 337 339 338 337 338 340 340
192 213 215 231 246 263 277 287 289 288 286 279 291 307 310 323 320 316 316 322 321 337 332 324 322 318 320 329 336 338 341 344 347 344 340 344 346 345
202 226 233 231 260 288 292 296 294 279 275 277 281 288 296 304 313 316 318 327 319 329 329 318 327 316 329 342 338 341 345 348 350 351 354 352 350 349
195 218 265 261 273 257 292 308 313 315 291 270 271 277 285 294 300 308 309 307 298 302 320 313 324 324 331 336 340 343 349 352 355 357 358 356 354 352
197 219 240 258 255 264 279 299 303 307 306 308 279 277 286 292 281 278 287 306 308 321 336 315 321 322 327 335 339 350 355 354 355 358 359 357 356 354
217 217 230 258 268 282 270 275 295 310 336 333 328 318 321 331 341 338 337 333 323 323 344 350 327 328 323 325 350 356 354 352 354 357 359 358 357 355
231 227 236 253 280 292 255 251 275 296 315 328 333 335 336 340 351 347 293 305 317 317 337 354 326 340 337 324 342 349 351 351 353 355 357 358 356 357
230 271 277 294 301 306 300 267 269 296 303 321 329 338 343 346 352 350 332 289 284 285 292 328 319 329 310 310 322 335 346 346 348 351 354 356 357 359
232 297 344 339 330 318 315 307 316 335 314 335 349 341 336 336 337 341 337 331 302 275 284 297 290 296 311 310 308 320 331 337 344 346 351 354 358 358
351 355 356 347 340 329 332 339 359 351 348 353 336 325 325 325 339 343 344 351 348 336 326 314 297 294 293 286 298 309 319 324 339 343 344 349 350 352
5 26 30 35 28 8 8 15 18 14 27 351 332 326 334 343 342 338 338 346 352 345 349 355 350 309 296 289 287 300 313 315 327 333 337 342 350 357
17 34 36 36 30 21 18 21 20 19 20 1 354 350 347 345 338 340 347 348 349 342 347 354 358 347 298 276 296 300 311 319 321 329 339 345 344 353
79 63 50 50 41 28 18 5 4 359 353 349 348 346 337 334 336 343 350 350 344 338 342 344 353 352 353 341 281 294 322 322 327 333 337 338 336 342
81 83 76 52 32 22 14 2 347 334 333 336 336 332 329 334 339 339 344 349 346 341 339 340 347 355 352 343 334 344 330 328 336 342 341 336 324 323
68 86 78 47 23 7 356 347 338 335 339 342 341 339 334 337 339 338 336 341 341 340 341 344 347 343 326 309 308 312 327 333 341 344 339 333 328 325
63 64 64 41 7 1 355 339 329 325 333 333 335 336 334 340 338 331 333 341 340 336 337 330 318 327 325 338 340 338 340 351 353 343 335 338 342 353
62 52 37 26 8 353 348 340 331 329 331 325 329 331 328 330 334 332 335 336 331 333 330 330 335 350 10 16 358 344 347 353 3 12 14 9 351 355
62 38 18 4 348 343 342 331 331 326 322 325 329 330 331 329 329 332 332 330 334 343 355 359 1 6 5 7 4 355 357 1 5 12 13 13 17 15
Height
1475 1476 1476 1476 1476 1476 1476 1476 1476 1473 1470 1468 1467 1465 1463 1461 1459 1457 1455 1454 1453 1452 1451 1449 1448 1446 1445 1443 1440 1438 1436 1434 1432 1429 1427 1425 1423 1420
1471 1472 1472 1472 1472 1472 1471 1471 1471 1470 1467 1465 1463 1461 1460 1457 1456 1453 1451 1450 1449 1447 1446 1445 1443 1442 1440 1438 1436 1434 1432 1430 1428 1425 1423 1421 1419 1416
1467 1468 1468 1468 1468 1468 1467 1467 1466 1465 1463 1460 1460 1458 1456 1454 1451 1449 1447 1446 1444 1443 1441 1440 1438 1437 1436 1434 1432 1430 1428 1426 1424 1422 1420 1417 1415 1412
1463 1464 1464 1464 1464 1463 1463 1462 1461 1461 1459 1457 1455 1453 1452 1450 1448 1445 1443 1442 1440 1438 1437 1436 1434 1433 1432 1430 1428 1426 1424 1422 1420 1418 1416 1414 1411 1409
1460 1460 1460 1460 1460 1459 1459 1458 1457 1457 1455 1454 1451 1450 1448 1446 1444 1442 1440 1438 1436 1435 1434 1432 1430 1429 1428 1426 1425 1423 1421 1418 1416 1414 1412 1410 1407 1405
1456 1456 1456 1456 1456 1456 1455 1454 1454 1453 1451 1450 1448 1446 1444 1443 1441 1438 1436 1434 1433 1431 1430 1429 1427 1426 1424 1423 1421 1419 1417 1415 1412 1411 1409 1406 1404 1402
1451 1452 1452 1452 1453 1452 1452 1451 1450 1449 1448 1446 1444 1443 1441 1439 1437 1435 1433 1432 1430 1428 1427 1425 1424 1422 1420 1419 1418 1416 1414 1412 1409 1408 1405 1403 1401 1399
1447 1448 1449 1449 1448 1448 1448 1447 1447 1446 1444 1443 1441 1440 1438 1437 1435 1433 1431 1429 1426 1426 1424 1422 1421 1419 1418 1417 1415 1413 1412 1409 1407 1405 1403 1401 1399 1397
1443 1444 1444 1445 1445 1444 1444 1444 1443 1442 1442 1440 1438 1437 1435 1434 1432 1430 1429 1428 1425 1424 1422 1419 1418 1416 1415 1414 1413 1411 1409 1407 1405 1403 1401 1399 1397 1395
1440 1441 1441 1441 1441 1441 1440 1440 1439 1438 1437 1436 1435 1434 1432 1431 1430 1429 1427 1426 1424 1422 1421 1417 1415 1414 1412 1412 1411 1409 1407 1405 1403 1401 1399 1397 1395 1393
1437 1437 1437 1437 1437 1437 1437 1436 1436 1435 1434 1433 1432 1431 1430 1428 1428 1426 1425 1423 1421 1419 1418 1416 1414 1412 1410 1409 1409 1407 1405 1403 1401 1399 1397 1395 1393 1391
1433 1434 1434 1434 1434 1434 1433 1433 1432 1431 1430 1429 1428 1428 1427 1426 1425 1424 1423 1421 1419 1417 1416 1415 1413 1412 1409 1408 1407 1405 1403 1401 1399 1397 1395 1393 1391 1389
1430 1430 1431 1431 1431 1431 1430 1430 1429 1429 1427 1426 1425 1424 1424 1423 1422 1422 1421 1420 1418 1416 1416 1415 1412 1411 1410 1407 1405 1404 1402 1399 1397 1395 1393 1392 1389 1387
1427 1428 1428 1428 1428 1428 1428 1427 1427 1426 1425 1424 1423 1422 1422 1421 1420 1420 1419 1418 1417 1416 1414 1413 1412 1410 1408 1406 1404 1401 1400 1398 1396 1394 1392 1390 1388 1386
1425 1426 1426 1426 1425 1425 1425 1425 1424 1423 1423 1422 1421 1421 1421 1420 1419 1418 1417 1416 1415 1414 1413 1412 1410 1409 1407 1405 1403 1400 1398 1396 1395 1392 1390 1388 1386 1383
1424 1424 1424 1424 1424 1423 1423 1422 1422 1421 1421 1421 1420 1419 1419 1418 1417 1417 1415 1414 1413 1412 1411 1410 1409 1407 1405 1404 1402 1399 1398 1396 1394 1391 1389 1387 1385 1383
1422 1422 1422 1422 1422 1421 1421 1421 1420 1420 1420 1419 1419 1418 1417 1417 1416 1416 1414 1413 1412 1410 1409 1408 1407 1406 1405 1403 1401 1399 1397 1395 1393 1391 1388 1385 1384 1382
1420 1420 1420 1420 1420 1420 1420 1419 1419 1419 1419 1419 1418 1417 1417 1416 1415 1415 1414 1413 1411 1410 1408 1406 1405 1404 1403 1402 1401 1398 1397 1394 1392 1390 1388 1385 1382 1381
1419 1418 1419 1419 1419 1419 1419 1419 1419 1419 1418 1418 1417 1417 1416 1415 1415 1414 1413 1412 1410 1409 1407 1406 1404 1403 1402 1400 1400 1399 1396 1394 1391 1389 1387 1385 1382 1380
1417 1417 1417 1418 1418 1418 1418 1418 1418 1418 1418 1417 1417 1416 1416 1415 1414 1413 1412 1411 1409 1408 1406 1405 1404 1403 1402 1401 1399 1398 1396 1394 1391 1388 1387 1385 1383 1381
1416 1416 1417 1417 1417 1418 1418 1417 1417 1417 1417 1416 1416 1415 1415 1414 1413 1413 1411 1410 1408 1407 1405 1405 1404 1403 1402 1400 1399 1397 1396 1394 1392 1389 1387 1384 1382 1380
1415 1415 1416 1416 1417 1417 1417 1417 1416 1416 1416 1415 1415 1414 1414 1413 1413 1412 1410 1409 1407 1406 1405 1405 1403 1402 1401 1400 1398 1397 1395 1394 1393 1391 1389 1387 1385 1382
1414 1414 1414 1415 1416 1416 1416 1416 1415 1415 1415 1414 1414 1414 1413 1412 1411 1410 1409 1408 1407 1406 1405 1404 1403 1402 1401 1400 1399 1398 1396 1394 1393 1391 1391 1389 1387 1386